Station MCGA1 - 8736897 - Coast Guard Sector Mobile, AL Image indicating link to RSS feed of recent meteorological observations for station MCGA1


Conditions at MCGA1 as of
(6:54 am CDT)
1154 GMT on 07/20/2024:
     

Click on the graph icon in the table below to see a time series plot of the last five days of that observation.

5-day plot - Wind Direction Wind Direction (WDIR): SW ( 230 deg true )
5-day plot - Wind Speed Wind Speed (WSPD): 1.0 kts
5-day plot - Wind Gust Wind Gust (GST): 1.9 kts
5-day plot - Atmospheric Pressure Atmospheric Pressure (PRES):30.02 in
5-day plot - Air Temperature Air Temperature (ATMP): 78.1 °F
5-day plot - Water Temperature Water Temperature (WTMP): 86.7 °F
5-day plot - Wind Speed at 10 Meters Wind Speed at 10 meters (WSPD10M): 1.9 kts
5-day plot - Wind Speed at 20 Meters Wind Speed at 20 meters (WSPD20M): 1.9 kts
5-day plot -  Wind Speed, Wind Gust and Atmospheric Pressure Combined plot of Wind Speed, Gust, and Air Pressure
NOS Water Level Observation Network Water Level
Previous observations
TIME
(CDT)
5-day plot - Wind Direction
WDIR
 
5-day plot - Wind Speed
WSPD
kts
5-day plot - Wind Gust
GST
kts
5-day plot - Wave Height
WVHT
ft
5-day plot - Dominant Wave Period
DPD
sec
5-day plot - Average Wave Period
APD
sec
5-day plot - Mean Wave Direction
MWD
 
5-day plot - Atmospheric Pressure
PRES
in
5-day plot - Pressure Tendency
PTDY
in
5-day plot - Air Temperature
ATMP
°F
5-day plot - Water Temperature
WTMP
°F
5-day plot - Dew Point
DEWP
°F
5-day plot - Salinity
SAL
psu
5-day plot - Visibility
VIS
nmi
5-day plot - Tide (above MLLW)
TIDE
ft
2024-07-20 06:48 am W 1.9 2.9----30.02-------
2024-07-20 06:42 am W 1.0 1.9----30.02-------
2024-07-20 06:36 am W 1.0 1.9----30.02-------
2024-07-20 06:30 am- 0.0 1.0----30.02- 77.7 86.7----
2024-07-20 06:24 am- 0.0 1.9----30.02- 77.7 86.9----
2024-07-20 06:18 am W 1.0 1.9----30.02- 77.7 86.9----
2024-07-20 06:12 am SW 1.9 2.9----30.02- 77.5 86.9----
2024-07-20 06:06 am- 0.0 2.9----30.01- 77.7 86.9----
2024-07-20 06:00 am-------30.01+0.01 77.7 86.9----
2024-07-20 05:54 am-------30.01- 77.5 86.9----
2024-07-20 05:48 am NW 2.9 5.1----30.01-- 86.9----
2024-07-20 05:42 am NW 2.9 6.0----30.01-- 86.9----
2024-07-20 05:36 amWNW 5.1 7.0----30.01-- 86.9----
2024-07-20 05:30 am-------30.01- 78.1 86.9----
2024-07-20 05:24 am-------30.01- 78.1 86.9----
2024-07-20 05:18 amWNW 2.9 4.1----30.01- 78.3 86.9----
2024-07-20 05:12 am W 2.9 5.1----30.01- 78.3 86.9----
2024-07-20 05:06 amWSW 4.1 5.1----30.01- 77.5 86.9----
2024-07-20 05:00 am SW 4.1 6.0----30.01+0.00 76.8 86.9----
2024-07-20 04:54 amSSW 4.1 11.1----30.01- 75.9 86.9----
2024-07-20 04:48 amSSW 4.1 8.9----30.01- 77.5 86.9----
2024-07-20 04:42 am W 4.1 5.1----30.01- 77.5 86.9----
2024-07-20 04:36 am W 1.9 4.1----30.01- 77.5 86.9----
2024-07-20 04:30 amWNW 1.0 1.9----30.01- 77.7 86.9----
2024-07-20 04:24 am NW 1.9 2.9----30.01- 77.7 86.9----
2024-07-20 04:18 amWNW 1.9 2.9----30.01- 77.9 86.9----
2024-07-20 04:12 am NW 1.0 2.9----30.01- 77.9 86.9----
2024-07-20 04:06 amWNW 2.9 2.9----30.01- 78.1 86.9----
2024-07-20 04:00 am NW 1.9 2.9----30.00-0.02 78.3 86.9----
2024-07-20 03:54 am NW 1.0 1.9----30.00- 78.3 86.9----
2024-07-20 03:48 am- 0.0 0.0----30.00-- 86.9----
2024-07-20 03:42 am- 0.0 1.0----30.00-- 86.9----
2024-07-20 03:36 am- 0.0 2.9----30.01-- 86.9----
2024-07-20 03:30 amNNW 2.9 5.1----30.01- 77.9 86.9----
2024-07-20 03:24 am N 4.1 5.1----30.00- 77.7 86.9----
2024-07-20 03:18 am N 4.1 5.1----30.00-- 86.9----
2024-07-20 03:12 am N 1.9 1.9----30.00-- 86.9----
2024-07-20 03:06 am- 0.0 0.0----30.00-- 86.9----
2024-07-20 03:00 am- 0.0 1.9----30.00-0.04 78.1 86.9----
2024-07-20 02:54 am NW 1.0 4.1----30.00- 78.1 86.9----
2024-07-20 02:48 am W 1.9 5.1----30.00-- 86.9----
2024-07-20 02:42 amWNW 2.9 5.1----30.00-- 86.9----
2024-07-20 02:36 am W 2.9 2.9----30.01-- 86.9----
2024-07-20 02:30 am W 1.9 6.0----30.01- 78.1 86.9----
2024-07-20 02:24 am W 4.1 6.0----30.01- 78.1 86.9----
2024-07-20 02:18 am-------30.01- 78.3 86.9----
2024-07-20 02:12 am-------30.01- 79.2 86.9----
2024-07-20 02:06 am-------30.01- 80.1 86.9----
2024-07-20 02:00 amWSW 5.1 7.0----30.01-0.02 80.1 86.9----
2024-07-20 01:54 amWSW 4.1 7.0----30.01- 80.1 86.9----
2024-07-20 01:48 am-------30.01- 80.4 86.9----
2024-07-20 01:42 am-------30.01- 80.2 87.1----
2024-07-20 01:36 am-------30.02- 79.0 87.1----
2024-07-20 01:30 am- 0.0 2.9----30.01- 79.3 87.1----
2024-07-20 01:24 am- 0.0 1.9----30.02- 79.2 86.9----
2024-07-20 01:18 am- 0.0 8.0----30.02- 79.0 86.9----
2024-07-20 01:12 am SW 4.1 8.0----30.03- 78.1 86.9----
2024-07-20 01:06 am NW 5.1 9.9----30.03- 77.9 86.9----
2024-07-20 01:00 am NE 8.9 9.9----30.02-0.01 78.1 86.9----
2024-07-20 12:54 am E 8.0 12.0----30.03- 77.5 87.1----
2024-07-20 12:48 amSSE 8.0 15.9----30.03- 77.7 87.1----
2024-07-20 12:42 am S 9.9 14.0----30.04- 79.7 86.9----
2024-07-20 12:36 am S 8.9 12.0----30.03- 80.1 86.9----
2024-07-20 12:30 am W 1.0 4.1----30.03- 77.7 86.9----
2024-07-20 12:24 amWSW 1.9 2.9----30.04- 77.2 86.9----
2024-07-20 12:18 am NW 2.9 5.1----30.04- 77.4 86.9----
2024-07-20 12:12 am NW 4.1 6.0----30.04- 77.0 86.9----
2024-07-20 12:06 am NW 2.9 4.1----30.04- 77.5 86.9----
2024-07-20 12:00 amWNW 2.9 2.9----30.04+0.02 77.7 86.9----
2024-07-19 11:54 pm W 1.0 5.1----30.04- 78.4 86.9----
2024-07-19 11:48 pmWNW 1.0 8.0----30.04-- 86.9----
2024-07-19 11:42 pmWNW 5.1 7.0----30.04-- 86.9----
2024-07-19 11:36 pmWNW 2.9 5.1----30.04-- 86.9----
2024-07-19 11:30 pmNNW 1.9 2.9----30.04- 77.9 86.9----
2024-07-19 11:24 pmNNW 1.9 5.1----30.04- 77.7 86.9----
2024-07-19 11:18 pm NW 1.9 4.1----30.04- 77.9 86.9----
2024-07-19 11:12 pmNNW 2.9 5.1----30.04- 78.1 86.9----
2024-07-19 11:06 pmNNW 2.9 4.1----30.04- 77.9 86.7----
2024-07-19 11:00 pmNNW 2.9 2.9----30.04+0.02 78.1 86.7----
2024-07-19 10:54 pmNNW 1.9 1.9----30.03- 78.6 86.7----
2024-07-19 10:48 pmNNE 1.9 1.9----30.03- 78.8 86.7----
2024-07-19 10:42 pm NE 1.9 2.9----30.03- 78.6 86.7----
2024-07-19 10:36 pm NE 1.9 2.9----30.03- 78.4 86.7----
2024-07-19 10:30 pm NE 1.9 2.9----30.03- 78.3 86.7----
2024-07-19 10:24 pm N 1.9 2.9----30.03- 78.3 86.7----
2024-07-19 10:18 pmNNE 2.9 5.1----30.03- 78.6 86.7----
2024-07-19 10:12 pm NE 5.1 6.0----30.03- 78.4 86.7----
2024-07-19 10:06 pm NE 2.9 5.1----30.03- 78.6 86.7----
2024-07-19 10:00 pmNNE 4.1 5.1----30.03+0.05 78.4 86.7----
2024-07-19 09:54 pmNNE 2.9 5.1----30.03- 78.4 86.9----
2024-07-19 09:48 pmNNE 2.9 5.1----30.03-- 86.9----
2024-07-19 09:42 pmNNE 2.9 5.1----30.03-- 86.9----
2024-07-19 09:36 pmNNE 2.9 5.1----30.02-- 86.9----
2024-07-19 09:30 pmNNE 5.1 5.1----30.02- 79.5 86.9----
2024-07-19 09:24 pm NE 5.1 6.0----30.02- 79.5 86.9----
2024-07-19 09:18 pm NE 4.1 6.0----30.02- 79.7 86.9----
2024-07-19 09:12 pm NE 4.1 4.1----30.02- 79.5 86.9----
2024-07-19 09:06 pm NE 2.9 2.9----30.02- 79.2 86.9----
2024-07-19 09:00 pmNNE 2.9 4.1----30.02+0.02 79.2 86.9----
2024-07-19 08:54 pm N 1.9 4.1----30.02- 79.2 86.9----
2024-07-19 08:48 pm N 1.9 4.1----30.02- 79.0 86.9----
2024-07-19 08:42 pm N 2.9 4.1----30.01- 79.0 86.9----
2024-07-19 08:36 pm N 2.9 2.9----30.02- 79.2 86.9----
2024-07-19 08:30 pmNNW 1.9 2.9----30.02- 79.2 86.9----
2024-07-19 08:24 pm NW 2.9 2.9----30.02- 79.0 86.9----
2024-07-19 08:18 pm N 1.9 2.9----30.02- 79.2 86.9----
2024-07-19 08:12 pm N 1.0 1.9----30.01- 79.2 86.9----
2024-07-19 08:06 pm- 0.0 1.9----30.01- 79.2 86.9----
2024-07-19 08:00 pm NW 1.9 2.9----30.01+0.00 79.2 86.9----
2024-07-19 07:54 pmNNW 2.9 4.1----30.01- 79.2 86.9----
2024-07-19 07:48 pm NW 4.1 4.1----30.01- 79.5 86.9----
2024-07-19 07:42 pmENE 1.9 2.9----30.00- 79.7 86.9----
2024-07-19 07:36 pmENE 1.9 2.9----30.00- 79.7 86.9----
2024-07-19 07:30 pm E 1.9 2.9----30.00- 80.1 86.9----
2024-07-19 07:24 pmESE 2.9 5.1----30.00- 79.3 86.9----
2024-07-19 07:18 pm E 2.9 4.1----29.99-- 86.9----
2024-07-19 07:12 pm E 1.0 1.9----29.99-- 86.9----
2024-07-19 07:06 pm N 1.0 1.9----29.99-- 86.9----
2024-07-19 07:00 pmNNE 1.0 1.9----29.99-0.04 78.6 86.9----
2024-07-19 06:54 pmNNE 1.9 4.1----29.99- 78.6 86.9----
2024-07-19 06:48 pmNNE 2.9 4.1----29.99- 78.8 86.9----
2024-07-19 06:42 pm NE 1.9 5.1----29.98- 79.0 86.9----
2024-07-19 06:36 pmNNE 4.1 5.1----29.98- 78.8 86.9----
2024-07-19 06:30 pm N 5.1 6.0----29.99- 78.8 86.9----
2024-07-19 06:24 pm N 2.9 4.1----29.99- 79.0 86.9----
2024-07-19 06:18 pmNNW 4.1 5.1----29.99- 78.6 86.9----
2024-07-19 06:12 pm N 5.1 8.0----29.99- 78.6 86.9----
2024-07-19 06:06 pm N 4.1 5.1----29.99- 78.8 86.9----
2024-07-19 06:00 pm NW 4.1 5.1----29.99-0.03- 86.9----
2024-07-19 05:54 pm NW 4.1 5.1----30.00-- 86.9----
2024-07-19 05:48 pmNNW 4.1 5.1----30.00- 79.0 86.9----
2024-07-19 05:42 pm NW 4.1 9.9----30.01- 78.8 86.9----
2024-07-19 05:36 pm NW 8.0 13.0----30.01- 78.8 86.9----
2024-07-19 05:30 pm NW 8.0 12.0----30.01-- 86.9----
2024-07-19 05:24 pm W 4.1 5.1----30.01-- 86.9----
2024-07-19 05:18 pmWSW 4.1 5.1----30.01-- 86.9----
2024-07-19 05:12 pm SW 4.1 7.0----30.01-- 86.9----
2024-07-19 05:06 pm SW 6.0 8.0----30.01-- 86.9----
2024-07-19 05:00 pm SW 2.9 7.0----30.01+0.00 83.5 86.9----
2024-07-19 04:54 pmSSW 5.1 6.0----30.02- 83.7 86.9----
2024-07-19 04:48 pm SW 5.1 8.9----30.02- 83.7 86.9----
2024-07-19 04:42 pmWSW 4.1 6.0----30.02- 84.0 86.9----
2024-07-19 04:36 pm W 4.1 6.0----30.02- 84.0 86.9----
2024-07-19 04:30 pm W 4.1 7.0----30.02- 83.8 86.9----
2024-07-19 04:24 pmWSW 5.1 7.0----30.03- 84.0 87.1----
2024-07-19 04:18 pmWSW 5.1 8.0----30.02- 84.0 87.1----
2024-07-19 04:12 pmWSW 4.1 7.0----30.03- 84.2 87.1----
2024-07-19 04:06 pm S 4.1 8.0----30.03- 84.2 87.1----
2024-07-19 04:00 pmWSW 4.1 8.0----30.02-0.01 83.8 87.1----
2024-07-19 03:54 pm S 1.9 8.0----30.02- 83.1 87.1----
2024-07-19 03:48 pm SE 4.1 7.0----30.02-- 87.1----
2024-07-19 03:42 pm S 5.1 8.0----30.02-- 87.3----
2024-07-19 03:36 pmSSE 4.1 8.0----30.02-- 87.3----
2024-07-19 03:30 pmSSE 6.0 9.9----30.02- 82.0 87.3----
2024-07-19 03:24 pmSSE 4.1 7.0----30.02- 82.4 87.3----
2024-07-19 03:18 pm S 4.1 8.0----30.03- 82.2 87.3----
2024-07-19 03:12 pm S 4.1 6.0----30.03- 82.2 87.3----
2024-07-19 03:06 pmSSW 4.1 7.0----30.03- 82.0 87.3----
2024-07-19 03:00 pm S 2.9 7.0----30.02-0.06 81.9 87.3----
2024-07-19 02:54 pm SW 2.9 11.1----30.03- 81.7 87.3----
2024-07-19 02:48 pm S 8.0 13.0----30.03- 81.1 87.3----
2024-07-19 02:42 pm S 8.0 14.0----30.03- 80.6 87.3----
2024-07-19 02:36 pm S 8.9 13.0----30.03- 80.6 87.3----
2024-07-19 02:30 pm S 8.0 13.0----30.02- 81.0 87.3----
2024-07-19 02:24 pm S 8.9 14.0----30.02- 80.4 87.3----
2024-07-19 02:18 pm S 8.0 12.0----30.02- 80.6 87.3----
2024-07-19 02:12 pm S 8.0 12.0----30.02- 80.4 87.3----
2024-07-19 02:06 pm S 6.0 11.1----30.01- 80.6 87.3----
2024-07-19 02:00 pm S 6.0 9.9----30.01-0.08 80.2 87.3----
2024-07-19 01:54 pmSSE 7.0 9.9----30.01- 80.1 87.3----
2024-07-19 01:48 pm S 5.1 8.9----30.01- 79.9 87.4----
2024-07-19 01:42 pm S 5.1 8.0----30.02- 80.1 87.4----
2024-07-19 01:36 pm S 6.0 8.0----30.02- 79.5 87.4----
2024-07-19 01:30 pmSSE 6.0 8.9----30.02- 79.5 87.4----
2024-07-19 01:24 pmSSE 4.1 8.9----30.03- 79.3 87.4----
2024-07-19 01:18 pm SE 5.1 11.1----30.03- 79.5 87.4----
2024-07-19 01:12 pm SE 7.0 9.9----30.03- 79.3 87.4----
2024-07-19 01:06 pm SE 7.0 12.0----30.03- 79.3 87.4----
2024-07-19 01:00 pm SE 8.0 13.0----30.03-0.04 79.0 87.4----
2024-07-19 12:54 pm SE 11.1 15.0----30.03- 78.6 87.4----
2024-07-19 12:48 pm SE 12.0 15.0----30.03- 78.3 87.4----
2024-07-19 12:42 pm SE 12.0 17.1----30.04- 78.3 87.6----
2024-07-19 12:36 pmSSE 8.0 18.1----30.05- 78.6 87.6----
2024-07-19 12:30 pm S 12.0 15.9----30.06- 78.8 87.6----
2024-07-19 12:24 pmSSE 9.9 15.0----30.06- 78.8 87.6----
2024-07-19 12:18 pmSSE 8.9 13.0----30.06- 79.2 87.6----
2024-07-19 12:12 pmSSE 8.0 15.0----30.07- 79.3 87.6----
2024-07-19 12:06 pm S 11.1 17.1----30.07- 79.2 87.6----
2024-07-19 12:00 pm S 11.1 15.9----30.08+0.03 79.3 87.6----
2024-07-19 11:54 am S 8.9 14.0----30.08- 79.3 87.6----
2024-07-19 11:48 am S 8.0 11.1----30.08- 79.5 87.6----
2024-07-19 11:42 am S 8.0 12.0----30.08- 79.0 87.6----
2024-07-19 11:36 am S 5.1 11.1----30.08- 78.8 87.6----
2024-07-19 11:30 am S 7.0 11.1----30.08- 78.8 87.6----
2024-07-19 11:24 am S 7.0 11.1----30.08- 79.0 87.6----
2024-07-19 11:18 am S 6.0 9.9----30.08- 78.8 87.6----
2024-07-19 11:12 am S 7.0 11.1----30.08- 78.4 87.6----
2024-07-19 11:06 am S 6.0 9.9----30.09- 78.1 87.6----
2024-07-19 11:00 amSSW 6.0 12.0----30.09+0.04 78.3 87.6----
2024-07-19 10:54 am S 7.0 11.1----30.09- 78.8 87.6----
2024-07-19 10:48 am S 8.0 12.0----30.09- 79.7 87.6----
2024-07-19 10:42 amSSW 4.1 6.0----30.09- 79.3 87.6----
2024-07-19 10:36 amSSW 2.9 7.0----30.09- 79.3 87.6----
2024-07-19 10:30 am S 5.1 8.0----30.10- 79.3 87.6----
2024-07-19 10:24 am S 5.1 8.0----30.09- 79.2 87.6----
2024-07-19 10:18 am S 4.1 6.0----30.08- 78.8 87.6----
2024-07-19 10:12 amSSE 4.1 7.0----30.08- 79.3 87.6----
2024-07-19 10:06 am S 5.1 6.0----30.08- 79.2 87.6----
2024-07-19 10:00 am S 5.1 7.0----30.07+0.04 79.3 87.6----
2024-07-19 09:54 am S 5.1 7.0----30.07- 79.5 87.6----
2024-07-19 09:48 am S 5.1 6.0----30.06- 79.3 87.6----
2024-07-19 09:42 amSSE 2.9 5.1----30.06- 79.3 87.6----
2024-07-19 09:36 am SE 4.1 5.1----30.06- 79.7 87.6----
2024-07-19 09:30 am SE 2.9 6.0----30.05- 79.9 87.6----
2024-07-19 09:24 amESE 1.9 4.1----30.05- 79.2 87.6----
2024-07-19 09:18 am E 2.9 5.1----30.05- 79.0 87.6----
2024-07-19 09:12 am E 4.1 5.1----30.05- 78.6 87.6----
2024-07-19 09:06 am NE 4.1 5.1----30.05- 78.1 87.6----
2024-07-19 09:00 am NE 5.1 7.0----30.05+0.02 77.9 87.6----
2024-07-19 08:54 amENE 5.1 6.0----30.06- 77.7 87.6----
2024-07-19 08:48 amENE 5.1 7.0----30.05- 78.1 87.6----
2024-07-19 08:42 amENE 7.0 8.0----30.05- 77.7 87.6----
2024-07-19 08:36 amENE 7.0 8.0----30.05- 77.5 87.6----
2024-07-19 08:30 am NE 6.0 7.0----30.04- 77.4 87.6----
2024-07-19 08:24 amNNE 2.9 5.1----30.05- 77.2 87.6----
2024-07-19 08:18 am N 2.9 4.1----30.05- 76.6 87.4----
2024-07-19 08:12 amNNW 2.9 5.1----30.05- 76.6 87.4----
2024-07-19 08:06 amNNW 4.1 6.0----30.05- 76.5 87.4----
2024-07-19 08:00 am NW 4.1 5.1----30.05+0.04 76.5 87.6----
2024-07-19 07:54 amNNW 4.1 5.1----30.04- 76.5 87.6----
2024-07-19 07:48 amNNW 1.9 5.1----30.03- 76.6 87.6----
2024-07-19 07:42 amNNW 4.1 5.1----30.03- 76.5 87.6----
2024-07-19 07:36 am NW 2.9 4.1----30.04- 76.8 87.4----
2024-07-19 07:30 amNNE 2.9 2.9----30.03- 77.0 87.4----
2024-07-19 07:24 am NE 1.9 2.9----30.03- 77.0 87.4----
2024-07-19 07:18 am NE 1.9 4.1----30.03- 77.2 87.4----
2024-07-19 07:12 am NE 1.9 4.1----30.04- 77.2 87.4----
2024-07-19 07:06 am- 0.0 1.0----30.04- 77.2 87.4----
2024-07-19 07:00 am- 0.0 1.0----30.04+0.03 76.8 87.4----
2024-07-19 06:54 am SW 1.9 2.9----30.04- 76.3 87.4----